Weather Roundup
Issued by NWS Corpus Christi, TX

Home | Current Version | Previous Version | Text Only | Print | Product List | Glossary Off
Versions: 1 2 3 4 5 6 7 8 9 10 11 12 13 14 15 16 17 18 19 20 21 22 23 24 25 26 27 28 29 30 31 32 33 34 35 36 37 38 39 40 41 42 43 44 45 46 47 48 49 50

000
ASUS44 KCRP 291710
HRRCRP

SOUTH TEXAS REGIONAL WEATHER ROUNDUP
NATIONAL WEATHER SERVICE CORPUS CHRISTI TX
1200 PM CDT WED JUL 29 2015


TXZ229>244-291800-
...CORPUS CHRISTI AREA OBSERVATIONS...

CITY           SKY/WX    TMP DP  RH WIND       PRES   REMARKS
CORPUS CHRISTI MOSUNNY   94  77  57 SE12G21   30.03R HX 108
NAS CORPUS CHR MOSUNNY   89  79  72 S13       30.04S HX 104
ROCKPORT       PTSUNNY   90  78  68 SE12      30.04S HX 104
KINGSVILLE NAS MOSUNNY   95  79  59 SE9       30.02S HX 112
ALICE          MOSUNNY   95  75  52 SE9G18    30.01F HX 107
FALFURRIAS     SUNNY     94  74  51 S9G17     30.01S HX 105
$$

...VICTORIA AREA OBSERVATIONS...

CITY           SKY/WX    TMP DP  RH WIND       PRES   REMARKS
VICTORIA       MOSUNNY   92  74  55 VRB7      30.05F HX 101
BEEVILLE       FAIR      92  78  64 SE14      30.04S HX 107
PLEASANTON     SUNNY     92  71  50 E7        30.05S HX  99
SAN ANTONIO    MOSUNNY   89  72  56 S10       30.07F HX  96
$$

...LAREDO AREA OBSERVATIONS...

CITY           SKY/WX    TMP DP  RH WIND       PRES   REMARKS
LAREDO         SUNNY     97  67  37 SE13G18   30.02R HX 101
COTULLA        SUNNY     93  71  48 S8        30.02F HX 100
DEL RIO        SUNNY     90  72  55 SE10      30.03S HX  97
MCALLEN        LGT RAIN  97  71  42 SE17G26   30.01R HX 104
HEBBRONVILLE     N/A     94  67  41 SE14G20   30.03F HX  97
$$

...OTHER TEXAS OBSERVATIONS...

CITY           SKY/WX    TMP DP  RH WIND       PRES   REMARKS
BROWNSVILLE    PTSUNNY   91  75  59 SE15      30.03R HX 101
HOUSTON        MOSUNNY   93  71  48 CALM      30.06S HX 100
COL. STATION   SUNNY     89  73  59 W6        30.06F HX  97
AUSTIN         MOSUNNY   89  71  55 S7        30.06S HX  95
WACO           SUNNY     92  70  48 S12       30.05F HX  97
FORT WORTH     MOSUNNY   93  71  48 VRB3      30.05S HX 100
WICHITA FALLS  SUNNY     93  71  48 SW8       30.04R HX 100
LUBBOCK        MOSUNNY   85  65  51 NE7       30.19S
EL PASO        MOSUNNY   82  61  48 N5        30.18R
$$

...MARINE OBSERVATIONS...

STATION/POSITION TIME  SKY/WX   TEMP    WIND        PRES    VSBY  WAVE   SWELL
                                AIR SEA DIR/SP/G                  HT/PER HT/PER
                 (UTC)          (F)     (DEG/KT/KT) (MB)    (MI)  (FT/S) (FT/S)
PORT ARANSAS     1700            83 83  110/  7/  8 1018.3R
BUOY 90 E PORT A 1650            86 87  160/  4/  6 1017.9R         3/ 6   2/ 6
BUOY 45 SE BAFFI 1650            84 84  150/  8/ 10 1017.3R         3/ 6   3/ 6
BUOY 200 E PT IS 1650            86 87  140/  4/  6 1018.5R         2/ 6   2/ 6
BUOY 15 E GALVES 1650            85 88  290/  2/  4 1017.8R         2/ 6   2/ 6
$$


USA.gov is the U.S. government's official web portal to all federal, state and local government web resources and services.